Location: Fort Wayne
(41.1310°N, 85.1290°W)
Time: 19:15:29
(UTC-05:00)

IDEFIX/ARIANE 42P - Visible Passes

Search period start: 01 February 2015 00:00
Search period end: 11 February 2015 00:00
Orbit: 786 x 802 km, 98.3° (Epoch: 01 February)

Date Brightness Start Highest point End Pass type
(mag) Time Alt. Az. Time Alt. Az. Time Alt. Az.
01 Feb 2.6 19:30:21 10° SSE 19:35:24 53° ENE 19:40:32 10° N visible
01 Feb 5.0 21:11:42 10° SW 21:15:25 19° W 21:18:59 10° NW visible
02 Feb 3.3 19:02:53 10° SE 19:07:22 30° ENE 19:11:57 10° N visible
02 Feb 4.1 20:42:10 10° SSW 20:46:55 34° W 20:51:39 10° NNW visible
03 Feb 6.1 07:18:43 10° ENE 07:19:45 11° E 07:21:09 10° E visible
03 Feb 3.9 18:36:06 10° ESE 18:39:24 18° ENE 18:42:54 10° NNE visible
03 Feb 3.0 20:13:24 10° S 20:18:35 62° W 20:23:49 10° NNW visible
04 Feb 2.4 19:45:10 10° SSE 19:50:22 74° ENE 19:55:39 10° N visible
04 Feb 5.4 21:28:03 10° WSW 21:30:40 13° W 21:33:00 10° WNW visible
05 Feb 2.9 19:17:25 10° SE 19:22:17 41° ENE 19:27:13 10° N visible
05 Feb 4.6 20:57:47 10° SSW 21:02:05 25° W 21:06:17 10° NW visible
06 Feb 3.6 18:50:13 10° ESE 18:54:16 24° ENE 18:58:27 10° NNE visible
06 Feb 3.6 20:28:39 10° S 20:33:39 44° W 20:38:41 10° NNW visible
07 Feb 2.6 20:00:08 10° S 20:05:22 81° WSW 20:10:41 10° NNW visible
08 Feb 2.6 19:32:07 10° SSE 19:37:13 56° ENE 19:42:24 10° N visible
08 Feb 5.1 21:13:42 10° SW 21:17:17 18° W 21:20:41 10° NW visible
09 Feb 3.3 19:04:36 10° SE 19:09:10 32° ENE 19:13:49 10° N visible
09 Feb 4.2 20:44:04 10° SSW 20:48:46 32° W 20:53:26 10° NNW visible
10 Feb 3.9 18:37:44 10° ESE 18:41:12 19° ENE 18:44:51 10° NNE visible
10 Feb 3.1 20:15:15 10° S 20:20:24 58° W 20:25:37 10° NNW visible
